Location: Il Ritiro
(43.4167°N, 13.1333°E)
Time: 07:12:44
(UTC+00:00)

Cosmos 1603 - Pass Details

Date: 05 July 2020
Orbit: 830 x 861 km, 71.0° (Epoch: 05 August)

Event Time Altitude Azimuth Distance (km) Brightness Sun altitude
Exits shadow 23:36:10 54° 157° (SSE) 1,018 3.7 -23.7°
Maximum altitude 23:37:09 64° 110° (ESE) 936 3.8 -23.7°
Drops below altitude 10° 23:42:48 10° 31° (NNE) 2,488 7.0 -23.6°
Sets 23:45:17 0° 28° (NNE) 3,433 8.1 -23.5°
